Location: Clair
(33.8067°N, 117.9845°W)
Time: 07:33:21
(UTC+00:00)

SL-16 R/B - Pass Details

Date: 14 February 2026
Orbit: 841 x 845 km, 71.0° (Epoch: 12 March)

Event Time Altitude Azimuth Distance (km) Brightness Sun altitude
Rises 13:48:34 0° 202° (SSW) 3,381 5.2 -10.7°
Reaches altitude 10° 13:51:00 10° 203° (SSW) 2,450 4.5 -10.2°
Maximum altitude 13:56:38 80° 291° (WNW) 858 2.2 -9.1°
Drops below altitude 10° 14:02:18 10° 18° (NNE) 2,466 4.7 -7.9°
Sets 14:04:46 0° 20° (NNE) 3,405 5.5 -7.4°
